Latest Coastal Weather Observations for Flinders Reef

IDQ60701

Issued at 3:12 am EST Thursday 28 July 2016 (issued every 10 minutes, with the page automatically refreshed every 10 minutes)

About coastal observations | Map of coastal stations | Coastal observations for QLD | Marine services | Other Formats
Station Details ID: 200783 Name: FLINDERS REEF Lat: -17.72 Lon: 148.45 Height: 2.6 m
Data from the previous 72 hours. | See also: Recent months at Flinders Reef
Date/Time
EST
Temp
°C
Wind Pressure Rain since
9am
mm
Weather Cloud Vis
km
Sea
Height
m
Swell
Dir  Spd
kts
Gust
kts
hPa Trend Height
m
Period
s
Dir
28/03:00am 24.2 SSE 23 26 1016.8 - - - - - - - - -
28/02:30am 24.2 SE 22 25 1016.9 - - - - - - - - -
28/02:24am 24.2 SE 23 - 1016.8 - - - - - - - - -
28/02:00am 24.2 SSE 23 26 1017.0 - - - - - - - - -
28/01:30am 24.6 SSE 23 26 1017.3 - - - - - - - - -
28/01:24am 24.3 SSE 23 - 1017.2 - - - - - - - - -
28/01:00am 24.3 SSE 22 25 1017.5 - - - - - - - - -
28/12:30am 24.3 SE 22 26 1017.5 - - - - - - - - -
28/12:24am 24.5 SSE 22 - 1017.5 - - - - - - - - -
28/12:00am 24.5 SE 22 26 1017.5 - - - - - - - - -
 
Date/Time
EST
Temp
°C
Wind Pressure Rain since
9am
mm
Weather Cloud Vis
km
Sea
Height
m
Swell
Dir  Spd
kts
Gust
kts
hPa Trend Height
m
Period
s
Dir
27/11:30pm 24.6 SSE 23 28 1017.4 - - - - - - - - -
27/11:24pm 24.8 SE 23 - 1017.3 - - - - - - - - -
27/11:00pm 24.6 SE 23 26 1017.6 - - - - - - - - -
27/10:30pm 24.6 SE 23 25 1017.7 - - - - - - - - -
27/10:24pm 24.5 SE 21 - 1017.6 - - - - - - - - -
27/10:00pm 24.9 SE 21 24 1017.8 - - - - - - - - -
27/09:30pm 24.6 SE 20 24 1017.8 - - - - - - - - -
27/09:24pm 25.0 SE 21 - 1017.7 - - - - - - - - -
27/09:00pm 24.9 SE 20 24 1017.8 - - - - - - - - -
27/08:30pm 24.8 SE 21 23 1017.4 - - - - - - - - -
27/08:24pm 24.8 SE 20 - 1017.2 - - - - - - - - -
27/08:00pm 24.8 SE 20 23 1016.9 - - - - - - - - -
27/07:30pm 24.6 SE 19 23 1016.7 - - - - - - - - -
27/07:24pm 24.9 SE 19 - 1016.6 - - - - - - - - -
27/07:00pm 24.8 SE 21 24 1016.5 - - - - - - - - -
27/06:30pm 24.9 SE 20 23 1016.3 - - - - - - - - -
27/06:24pm 24.9 SE 20 - 1016.1 - - - - - - - - -
27/06:00pm 24.8 SE 21 24 1016.1 - - - - - - - - -
27/05:30pm 24.9 SSE 21 25 1015.7 - - - - - - - - -
27/05:24pm 24.8 SE 21 - 1015.5 - - - - - - - - -
27/05:00pm 25.0 SE 20 23 1015.5 - - - - - - - - -
27/04:30pm 24.9 SSE 21 25 1015.2 - - - - - - - - -
27/04:24pm 24.8 SSE 20 - 1015.1 - - - - - - - - -
27/04:00pm 24.8 SSE 20 23 1014.9 - - - - - - - - -
27/03:30pm 24.9 SSE 20 23 1014.5 - - - - - - - - -
27/03:24pm 25.0 SSE 20 - 1014.5 - - - - - - - - -
27/03:00pm 24.7 SE 19 23 1014.4 - - - - - - - - -
27/02:30pm 25.1 SE 20 22 1014.5 - - - - - - - - -
27/02:24pm 24.7 SE 20 - 1014.5 - - - - - - - - -
27/02:00pm 24.8 SE 20 22 1014.8 - - - - - - - - -
27/01:30pm 24.9 SE 20 23 1014.9 - - - - - - - - -
27/01:24pm 24.8 SE 19 - 1014.9 - - - - - - - - -
27/01:00pm 24.9 SE 20 22 1015.1 - - - - - - - - -
27/12:30pm 24.8 SE 20 23 1015.4 - - - - - - - - -
27/12:24pm 24.9 SE 20 - 1015.4 - - - - - - - - -
27/12:00pm 25.1 SE 20 23 1015.9 - - - - - - - - -
27/11:30am 24.9 SE 21 25 1016.0 - - - - - - - - -
27/11:24am 25.1 SE 21 - 1016.0 - - - - - - - - -
27/11:00am 24.6 SE 21 23 1016.3 - - - - - - - - -
27/10:30am 24.6 SE 20 24 1016.6 - - - - - - - - -
27/10:24am 24.8 SE 20 - 1016.6 - - - - - - - - -
27/10:00am 24.5 SE 22 24 1016.7 - - - - - - - - -
27/09:30am 24.3 SE 24 28 1016.7 - - - - - - - - -
27/09:24am 24.8 SE 23 - 1016.6 - - - - - - - - -
27/09:00am 24.8 SE 22 25 1016.7 - - - - - - - - -
27/08:30am 24.3 SE 21 24 1016.3 - - - - - - - - -
27/08:24am 24.4 SE 22 - 1016.3 - - - - - - - - -
27/08:00am 24.5 SE 21 25 1016.2 - - - - - - - - -
27/07:30am 24.9 SE 21 23 1016.0 - - - - - - - - -
27/07:24am 24.8 SE 20 - 1015.9 - - - - - - - - -
27/07:00am 24.9 SE 19 21 1015.8 - - - - - - - - -
27/06:30am 24.4 SE 18 22 1015.5 - - - - - - - - -
27/06:24am 24.8 SE 19 - 1015.4 - - - - - - - - -
27/06:00am 24.8 SE 19 21 1015.4 - - - - - - - - -
27/05:30am 24.6 SE 18 21 1015.1 - - - - - - - - -
27/05:24am 24.8 SE 18 - 1014.9 - - - - - - - - -
27/05:00am 24.8 ESE 18 21 1015.0 - - - - - - - - -
27/04:30am 25.1 ESE 17 20 1014.9 - - - - - - - - -
27/04:24am 25.0 ESE 18 - 1014.8 - - - - - - - - -
27/04:00am 25.0 ESE 18 21 1014.7 - - - - - - - - -
27/03:30am 25.1 ESE 17 20 1014.7 - - - - - - - - -
27/03:24am 24.8 ESE 17 - 1014.6 - - - - - - - - -
27/03:00am 24.8 ESE 17 19 1014.9 - - - - - - - - -
27/02:30am 24.6 ESE 17 19 1014.9 - - - - - - - - -
27/02:24am 24.8 ESE 17 - 1014.9 - - - - - - - - -
27/02:00am 24.8 ESE 17 19 1015.1 - - - - - - - - -
27/01:30am 24.7 ESE 15 18 1015.5 - - - - - - - - -
27/01:24am 24.6 ESE 15 - 1015.5 - - - - - - - - -
27/01:00am 24.5 ESE 16 18 1015.8 - - - - - - - - -
27/12:30am 24.6 E 18 20 1015.8 - - - - - - - - -
27/12:27am 24.8 ESE 16 19 1015.9 - - - - - - - - -
27/12:24am 24.7 ESE 1 - 1015.8 - - - - - - - - -
27/12:00am 24.7 ESE 1 3 1015.9 - - - - - - - - -
 
Date/Time
EST
Temp
°C
Wind Pressure Rain since
9am
mm
Weather Cloud Vis
km
Sea
Height
m
Swell
Dir  Spd
kts
Gust
kts
hPa Trend Height
m
Period
s
Dir
26/11:30pm 24.8 CALM 0 3 1016.0 - - - - - - - - -
26/11:24pm 24.8 SE 1 - 1016.0 - - - - - - - - -
26/11:00pm 24.8 SE 1 3 1016.1 - - - - - - - - -
26/10:30pm 24.8 SE 1 3 1016.0 - - - - - - - - -
26/10:24pm 24.8 SE 1 - 1015.9 - - - - - - - - -
26/10:00pm 24.9 SE 1 3 1016.1 - - - - - - - - -
26/09:30pm 24.9 SE 1 3 1015.9 - - - - - - - - -
26/09:24pm 24.7 SE 1 - 1015.8 - - - - - - - - -
26/09:00pm 24.7 SE 1 3 1015.8 - - - - - - - - -
26/08:30pm 25.0 SE 1 2 1015.7 - - - - - - - - -
26/08:24pm 24.8 SE 1 - 1015.6 - - - - - - - - -
26/08:00pm 24.7 SE 1 5 1015.4 - - - - - - - - -
26/07:30pm 24.8 CALM 0 3 1015.2 - - - - - - - - -
26/07:24pm 24.7 CALM 0 - 1015.1 - - - - - - - - -
26/07:00pm 24.9 SE 1 3 1014.9 - - - - - - - - -
26/06:30pm 24.8 SE 1 3 1014.5 - - - - - - - - -
26/06:24pm 24.7 SE 1 - 1014.4 - - - - - - - - -
26/06:00pm 24.9 ESE 14 16 1014.2 - - - - - - - - -
26/05:30pm 25.0 SE 13 15 1014.0 - - - - - - - - -
26/05:24pm 24.8 ESE 13 - 1013.9 - - - - - - - - -
26/05:00pm 24.9 ESE 13 15 1013.8 - - - - - - - - -
26/04:30pm 24.8 ESE 14 16 1013.5 - - - - - - - - -
26/04:24pm 25.0 ESE 14 - 1013.3 - - - - - - - - -
26/04:00pm 24.9 ESE 14 16 1013.2 - - - - - - - - -
26/03:30pm 24.9 ESE 14 16 1013.2 - - - - - - - - -
26/03:24pm 24.9 ESE 14 - 1013.1 - - - - - - - - -
26/03:00pm 24.9 ESE 14 16 1013.2 - - - - - - - - -
26/02:30pm 25.0 ESE 15 17 1013.5 - - - - - - - - -
26/02:24pm 24.8 ESE 15 - 1013.5 - - - - - - - - -
26/02:00pm 24.9 ESE 15 17 1013.8 - - - - - - - - -
26/01:30pm 25.0 ESE 15 17 1014.2 - - - - - - - - -
26/01:24pm 24.9 ESE 14 - 1014.2 - - - - - - - - -
26/01:00pm 24.9 ESE 14 17 1014.6 - - - - - - - - -
26/12:30pm 25.1 ESE 14 16 1014.9 - - - - - - - - -
26/12:24pm 24.9 ESE 14 - 1014.9 - - - - - - - - -
26/12:00pm 25.0 E 15 17 1015.3 - - - - - - - - -
26/11:30am 24.9 E 15 18 1015.6 - - - - - - - - -
26/11:24am 24.9 E 15 - 1015.5 - - - - - - - - -
26/11:00am 25.1 E 15 17 1016.0 - - - - - - - - -
26/10:30am 24.7 ESE 16 18 1016.2 - - - - - - - - -
26/10:24am 25.0 ESE 16 - 1016.0 - - - - - - - - -
26/10:00am 25.1 ESE 15 18 1016.3 - - - - - - - - -
26/09:30am 25.0 E 18 20 1016.5 - - - - - - - - -
26/09:24am 25.0 E 17 - 1016.3 - - - - - - - - -
26/09:00am 24.9 E 18 20 1016.3 - - - - - - - - -
26/08:30am 24.8 E 17 19 1016.0 - - - - - - - - -
26/08:24am 25.1 E 17 - 1015.9 - - - - - - - - -
26/08:00am 24.8 ESE 17 19 1015.9 - - - - - - - - -
26/07:30am 24.8 ESE 16 19 1015.5 - - - - - - - - -
26/07:24am 24.7 ESE 16 - 1015.4 - - - - - - - - -
26/07:00am 24.7 ESE 16 19 1015.4 - - - - - - - - -
26/06:30am 24.6 ESE 16 18 1015.2 - - - - - - - - -
26/06:24am 24.7 ESE 16 - 1014.9 - - - - - - - - -
26/06:00am 25.0 ESE 16 18 1014.8 - - - - - - - - -
26/05:30am 24.7 ESE 17 19 1014.8 - - - - - - - - -
26/05:24am 24.5 ESE 17 - 1014.6 - - - - - - - - -
26/05:00am 24.6 E 18 20 1014.6 - - - - - - - - -
26/04:30am 24.7 E 16 20 1014.6 - - - - - - - - -
26/04:24am 24.7 E 16 - 1014.5 - - - - - - - - -
26/04:00am 24.6 E 16 18 1014.6 - - - - - - - - -
26/03:30am 23.4 ENE 11 13 1014.8 - - - - - - - - -
26/03:24am 23.4 ENE 11 - 1014.7 - - - - - - - - -
26/03:02am 23.9 E 15 25 1014.8 - - - - - - - - -
26/03:00am 24.2 E 14 22 1014.8 - - - - - - - - -
26/02:30am 24.7 ESE 15 17 1015.0 - - - - - - - - -
26/02:24am 24.7 ESE 15 - 1015.0 - - - - - - - - -
26/02:00am 24.4 ESE 15 18 1015.4 - - - - - - - - -
26/01:30am 24.6 ESE 15 17 1015.6 - - - - - - - - -
26/01:24am 24.5 ESE 14 - 1015.6 - - - - - - - - -
26/01:00am 24.6 ESE 14 16 1015.8 - - - - - - - - -
26/12:30am 24.4 ESE 14 17 1015.9 - - - - - - - - -
26/12:24am 24.6 ESE 15 - 1015.8 - - - - - - - - -
26/12:00am 24.6 ESE 15 17 1016.0 - - - - - - - - -
 
Date/Time
EST
Temp
°C
Wind Pressure Rain since
9am
mm
Weather Cloud Vis
km
Sea
Height
m
Swell
Dir  Spd
kts
Gust
kts
hPa Trend Height
m
Period
s
Dir
25/11:30pm 24.8 ESE 15 18 1016.1 - - - - - - - - -
25/11:24pm 24.5 ESE 15 - 1016.0 - - - - - - - - -
25/11:00pm 24.5 ESE 15 17 1016.1 - - - - - - - - -
25/10:30pm 24.7 SE 16 19 1016.1 - - - - - - - - -
25/10:24pm 24.8 SE 16 - 1016.0 - - - - - - - - -
25/10:00pm 24.7 SE 15 17 1016.1 - - - - - - - - -
25/09:30pm 24.9 SE 14 17 1016.0 - - - - - - - - -
25/09:24pm 24.7 SE 14 - 1015.8 - - - - - - - - -
25/09:00pm 24.7 SE 14 16 1015.9 - - - - - - - - -
25/08:30pm 24.6 SE 13 15 1015.6 - - - - - - - - -
25/08:24pm 24.6 SE 13 - 1015.5 - - - - - - - - -
25/08:00pm 24.5 SE 14 16 1015.4 - - - - - - - - -
25/07:30pm 24.6 SE 14 15 1015.2 - - - - - - - - -
25/07:24pm 24.5 SE 14 - 1015.0 - - - - - - - - -
25/07:00pm 24.5 SE 13 15 1014.9 - - - - - - - - -
25/06:30pm 24.7 ESE 13 15 1014.5 - - - - - - - - -
25/06:24pm 24.8 ESE 13 - 1014.4 - - - - - - - - -
25/06:00pm 24.8 SE 12 15 1014.4 - - - - - - - - -
25/05:30pm 24.7 SE 13 15 1014.3 - - - - - - - - -
25/05:24pm 24.9 ESE 13 - 1014.1 - - - - - - - - -
25/05:00pm 24.8 SE 12 15 1014.0 - - - - - - - - -
25/04:30pm 24.8 SE 13 16 1013.9 - - - - - - - - -
25/04:24pm 24.5 SE 13 - 1013.9 - - - - - - - - -
25/04:00pm 24.7 SE 12 15 1013.9 - - - - - - - - -
25/03:30pm 24.8 SE 12 14 1014.0 - - - - - - - - -
25/03:24pm 24.6 SE 12 - 1013.9 - - - - - - - - -
25/03:00pm 24.7 SE 12 13 1014.1 - - - - - - - - -
25/02:30pm 24.5 SSE 12 13 1014.2 - - - - - - - - -
25/02:24pm 24.5 SE 11 - 1014.2 - - - - - - - - -
25/02:00pm 24.5 SE 11 13 1014.5 - - - - - - - - -
25/01:30pm 24.7 SE 11 13 1014.6 - - - - - - - - -
25/01:24pm 24.4 SE 12 - 1014.6 - - - - - - - - -
25/01:00pm 24.8 SE 11 13 1015.0 - - - - - - - - -
25/12:30pm 24.6 SE 12 14 1015.4 - - - - - - - - -
25/12:24pm 24.7 SE 12 - 1015.4 - - - - - - - - -
25/12:00pm 24.6 SE 11 13 1015.8 - - - - - - - - -
25/11:30am 24.6 SE 11 13 1016.1 - - - - - - - - -
25/11:24am 24.6 SE 11 - 1016.1 - - - - - - - - -
25/11:00am 24.7 SE 11 13 1016.5 - - - - - - - - -
25/10:30am 24.8 SE 12 14 1016.7 - - - - - - - - -
25/10:24am 24.7 SE 12 - 1016.7 - - - - - - - - -
25/10:00am 24.6 SE 11 14 1016.9 - - - - - - - - -
25/09:30am 24.8 SE 11 13 1017.0 - - - - - - - - -
25/09:24am 24.6 SE 12 - 1016.9 - - - - - - - - -
25/09:00am 25.0 SE 12 14 1016.9 - - - - - - - - -
25/08:30am 24.7 SE 11 13 1016.7 - - - - - - - - -
25/08:24am 24.7 SE 11 - 1016.6 - - - - - - - - -
25/08:00am 24.8 ESE 11 13 1016.6 - - - - - - - - -
25/07:30am 24.2 ESE 11 12 1016.3 - - - - - - - - -
25/07:24am 24.4 ESE 11 - 1016.1 - - - - - - - - -
25/07:00am 24.2 SE 11 14 1015.9 - - - - - - - - -
25/06:30am 24.2 SE 12 14 1015.5 - - - - - - - - -
25/06:24am 24.0 SE 12 - 1015.3 - - - - - - - - -
25/06:00am 24.1 ESE 12 14 1015.1 - - - - - - - - -
25/05:30am 24.2 E 11 13 1014.7 - - - - - - - - -
25/05:24am 24.3 E 10 - 1014.5 - - - - - - - - -
25/05:00am 24.0 E 10 13 1014.5 - - - - - - - - -
25/04:30am 24.1 E 9 11 1014.4 - - - - - - - - -
25/04:24am 24.0 E 10 - 1014.2 - - - - - - - - -
25/04:00am 24.0 E 11 13 1014.2 - - - - - - - - -
25/03:30am 24.1 E 11 13 1014.1 - - - - - - - - -
25/03:24am 23.9 E 10 - 1014.0 - - - - - - - - -

Other Formats:

Comma delimited format used in spreadsheet applications
http://www.bom.gov.au/fwo/IDQ60701/IDQ60701.94290.axf

JavaScript Object Notation format (JSON) in row-major order
http://www.bom.gov.au/fwo/IDQ60701/IDQ60701.94290.json